| time (UTC) | temp F | wind direction | speed MPH | gust MPH | rain 1hr in | rain 24hr in | rain mn in | humidity % | barometer mb |
| 20260502235156 | 71 | 108 | 5.0 | 8.0 | 0.00 | 0.00 | 0.00 | 13 | 1017.6 |
| 20260502234652 | 71 | 111 | 9.0 | 12.0 | 0.00 | 0.00 | 0.00 | 12 | 1017.7 |
| 20260502234149 | 71 | 147 | 8.0 | 12.0 | 0.00 | 0.00 | 0.00 | 12 | 1017.8 |
| 20260502233645 | 71 | 180 | 3.0 | 10.0 | 0.00 | 0.00 | 0.00 | 12 | 1017.8 |
| 20260502233142 | 71 | 108 | 2.0 | 3.0 | 0.00 | 0.00 | 0.00 | 12 | 1018.1 |
| 20260502232637 | 71 | 173 | 4.0 | 5.0 | 0.00 | 0.00 | 0.00 | 12 | 1017.8 |
| 20260502232135 | 71 | 172 | 7.0 | 12.0 | 0.00 | 0.00 | 0.00 | 12 | 1018.1 |
| 20260502231632 | 72 | 174 | 6.0 | 14.0 | 0.00 | 0.00 | 0.00 | 12 | 1017.8 |
| 20260502231130 | 72 | 199 | 14.0 | 15.0 | 0.00 | 0.00 | 0.00 | 11 | 1017.8 |
| 20260502230628 | 72 | 197 | 12.0 | 14.0 | 0.00 | 0.00 | 0.00 | 11 | 1018.0 |
| 20260502230126 | 73 | 160 | 12.0 | 14.0 | 0.00 | 0.00 | 0.00 | 11 | 1018.2 |
| 20260502225621 | 73 | 178 | 18.0 | 21.0 | 0.00 | 0.00 | 0.00 | 11 | 1018.1 |
| 20260502225118 | 73 | 191 | 4.0 | 8.0 | 0.00 | 0.00 | 0.00 | 10 | 1018.0 |
| 20260502224615 | 73 | 208 | 10.0 | 16.0 | 0.00 | 0.00 | 0.00 | 10 | 1018.3 |
| 20260502224111 | 72 | 202 | 13.0 | 16.0 | 0.00 | 0.00 | 0.00 | 10 | 1018.3 |
| 20260502223609 | 71 | 165 | 7.0 | 11.0 | 0.00 | 0.00 | 0.00 | 10 | 1018.4 |
| 20260502223108 | 71 | 150 | 15.0 | 18.0 | 0.00 | 0.00 | 0.00 | 10 | 1018.7 |
| 20260502222605 | 71 | 231 | 17.0 | 22.0 | 0.00 | 0.00 | 0.00 | 10 | 1018.4 |
| 20260502222101 | 71 | 157 | 12.0 | 21.0 | 0.00 | 0.00 | 0.00 | 12 | 1018.5 |
| 20260502221556 | 71 | 136 | 11.0 | 16.0 | 0.00 | 0.00 | 0.00 | 12 | 1018.9 |
| 20260502221054 | 71 | 71 | 11.0 | 12.0 | 0.00 | 0.00 | 0.00 | 12 | 1018.8 |
| 20260502220549 | 71 | 69 | 7.0 | 10.0 | 0.00 | 0.00 | 0.00 | 12 | 1018.5 |
| 20260502220046 | 72 | 83 | 7.0 | 14.0 | 0.00 | 0.00 | 0.00 | 12 | 1018.8 |
| 20260502215544 | 72 | 150 | 11.0 | 23.0 | 0.00 | 0.00 | 0.00 | 11 | 1018.8 |
| 20260502215040 | 73 | 175 | 10.0 | 11.0 | 0.00 | 0.00 | 0.00 | 12 | 1018.7 |
| 20260502214537 | 71 | 173 | 6.0 | 15.0 | 0.00 | 0.00 | 0.00 | 12 | 1018.9 |
| 20260502214035 | 72 | 180 | 7.0 | 11.0 | 0.00 | 0.00 | 0.00 | 13 | 1019.2 |
| 20260502213532 | 71 | 198 | 13.0 | 15.0 | 0.00 | 0.00 | 0.00 | 12 | 1019.4 |
| 20260502213030 | 72 | 166 | 9.0 | 12.0 | 0.00 | 0.00 | 0.00 | 12 | 1019.2 |
| 20260502212528 | 72 | 301 | 6.0 | 8.0 | 0.00 | 0.00 | 0.00 | 12 | 1019.2 |
| 20260502212026 | 71 | 252 | 9.0 | 10.0 | 0.00 | 0.00 | 0.00 | 12 | 1019.4 |
| 20260502211521 | 71 | 184 | 14.0 | 18.0 | 0.00 | 0.00 | 0.00 | 12 | 1019.5 |
| 20260502211018 | 72 | 177 | 10.0 | 15.0 | 0.00 | 0.00 | 0.00 | 12 | 1019.5 |
| 20260502210515 | 71 | 204 | 4.0 | 7.0 | 0.00 | 0.00 | 0.00 | 13 | 1019.6 |
| 20260502210012 | 70 | 81 | 4.0 | 12.0 | 0.00 | 0.00 | 0.00 | 13 | 1019.5 |
| 20260502205509 | 69 | 155 | 5.0 | 7.0 | 0.00 | 0.00 | 0.00 | 14 | 1019.7 |
| 20260502205006 | 70 | 131 | 6.0 | 15.0 | 0.00 | 0.00 | 0.00 | 14 | 1019.7 |
| 20260502204503 | 71 | 141 | 11.0 | 14.0 | 0.00 | 0.00 | 0.00 | 14 | 1019.6 |
| 20260502204001 | 69 | 146 | 9.0 | 12.0 | 0.00 | 0.00 | 0.00 | 14 | 1019.8 |
| 20260502203457 | 70 | 142 | 13.0 | 21.0 | 0.00 | 0.00 | 0.00 | 14 | 1019.9 |
| 20260502202954 | 70 | 146 | 10.0 | 15.0 | 0.00 | 0.00 | 0.00 | 14 | 1019.9 |
| 20260502202450 | 71 | 162 | 10.0 | 15.0 | 0.00 | 0.00 | 0.00 | 14 | 1019.9 |
| 20260502201949 | 71 | 176 | 15.0 | 18.0 | 0.00 | 0.00 | 0.00 | 14 | 1019.9 |
| 20260502201444 | 70 | 181 | 15.0 | 16.0 | 0.00 | 0.00 | 0.00 | 14 | 1020.1 |
| 20260502200941 | 71 | 103 | 7.0 | 10.0 | 0.00 | 0.00 | 0.00 | 15 | 1019.8 |
| 20260502200437 | 70 | 162 | 15.0 | 18.0 | 0.00 | 0.00 | 0.00 | 15 | 1019.9 |
| 20260502195935 | 70 | 158 | 13.0 | 21.0 | 0.00 | 0.00 | 0.00 | 15 | 1019.9 |
| 20260502195432 | 70 | 131 | 5.0 | 14.0 | 0.00 | 0.00 | 0.00 | 15 | 1020.1 |
| 20260502194928 | 71 | 162 | 13.0 | 16.0 | 0.00 | 0.00 | 0.00 | 15 | 1020.3 |
| 20260502194425 | 70 | 152 | 6.0 | 10.0 | 0.00 | 0.00 | 0.00 | 15 | 1020.2 |
| 20260502193921 | 70 | 160 | 4.0 | 8.0 | 0.00 | 0.00 | 0.00 | 16 | 1020.3 |
| 20260502193418 | 70 | 183 | 11.0 | 14.0 | 0.00 | 0.00 | 0.00 | 16 | 1020.3 |
| 20260502192913 | 69 | 49 | 9.0 | 14.0 | 0.00 | 0.00 | 0.00 | 17 | 1020.5 |
| 20260502192411 | 69 | 99 | 11.0 | 16.0 | 0.00 | 0.00 | 0.00 | 17 | 1020.7 |
| 20260502191908 | 70 | 107 | 9.0 | 16.0 | 0.00 | 0.00 | 0.00 | 17 | 1020.7 |
| 20260502191406 | 68 | 140 | 13.0 | 16.0 | 0.00 | 0.00 | 0.00 | 18 | 1020.8 |
| 20260502190903 | 69 | 138 | 17.0 | 19.0 | 0.00 | 0.00 | 0.00 | 17 | 1020.9 |
| 20260502190400 | 69 | 75 | 11.0 | 16.0 | 0.00 | 0.00 | 0.00 | 18 | 1020.8 |
| 20260502185856 | 67 | 209 | 3.0 | 11.0 | 0.00 | 0.00 | 0.00 | 18 | 1020.9 |
| 20260502185351 | 68 | 96 | 11.0 | 15.0 | 0.00 | 0.00 | 0.00 | 18 | 1021.0 |
| 20260502184849 | 67 | 62 | 4.0 | 10.0 | 0.00 | 0.00 | 0.00 | 18 | 1021.1 |
| 20260502184344 | 68 | 166 | 10.0 | 14.0 | 0.00 | 0.00 | 0.00 | 18 | 1021.2 |
| 20260502183841 | 67 | 324 | 1.0 | 14.0 | 0.00 | 0.00 | 0.00 | 19 | 1021.5 |
| 20260502183337 | 67 | 178 | 10.0 | 23.0 | 0.00 | 0.00 | 0.00 | 19 | 1021.5 |
| 20260502182832 | 67 | 112 | 13.0 | 15.0 | 0.00 | 0.00 | 0.00 | 18 | 1021.6 |
| 20260502182328 | 66 | 59 | 2.0 | 5.0 | 0.00 | 0.00 | 0.00 | 19 | 1021.5 |
| 20260502181825 | 65 | 144 | 12.0 | 12.0 | 0.00 | 0.00 | 0.00 | 19 | 1021.8 |
| 20260502181324 | 66 | 126 | 8.0 | 11.0 | 0.00 | 0.00 | 0.00 | 19 | 1021.7 |
| 20260502180821 | 66 | 116 | 5.0 | 8.0 | 0.00 | 0.00 | 0.00 | 19 | 1021.8 |
| 20260502180319 | 65 | 62 | 3.0 | 7.0 | 0.00 | 0.00 | 0.00 | 18 | 1021.9 |
| 20260502170232 | 60 | 28 | 5.0 | 5.0 | 0.00 | 0.00 | 0.00 | 22 | 1022.5 |
| 20260502164219 | 59 | 37 | 4.0 | 8.0 | 0.00 | 0.00 | 0.00 | 22 | 1022.6 |
| 20260502163714 | 59 | 187 | 3.0 | 5.0 | 0.00 | 0.00 | 0.00 | 22 | 1022.6 |
| 20260502163211 | 57 | 65 | 1.0 | 4.0 | 0.00 | 0.00 | 0.00 | 23 | 1022.8 |
| 20260502162708 | 57 | 83 | 5.0 | 8.0 | 0.00 | 0.00 | 0.00 | 23 | 1022.6 |
| 20260502162205 | 56 | 35 | 6.0 | 7.0 | 0.00 | 0.00 | 0.00 | 23 | 1022.9 |
| 20260502161702 | 55 | 77 | 7.0 | 8.0 | 0.00 | 0.00 | 0.00 | 24 | 1022.8 |
| 20260502161158 | 54 | 109 | 5.0 | 5.0 | 0.00 | 0.00 | 0.00 | 25 | 1022.9 |
| 20260502160657 | 54 | 79 | 3.0 | 5.0 | 0.00 | 0.00 | 0.00 | 25 | 1022.9 |
| 20260502160155 | 53 | 114 | 5.0 | 7.0 | 0.00 | 0.00 | 0.00 | 25 | 1022.8 |
| 20260502152109 | 46 | 81 | 5.0 | 7.0 | 0.00 | 0.00 | 0.00 | 34 | 1023.2 |
| 20260502151606 | 45 | 78 | 5.0 | 7.0 | 0.00 | 0.00 | 0.00 | 34 | 1023.1 |
| 20260502151104 | 45 | 83 | 3.0 | 7.0 | 0.00 | 0.00 | 0.00 | 34 | 1022.8 |
| 20260502150601 | 44 | 68 | 4.0 | 7.0 | 0.00 | 0.00 | 0.00 | 35 | 1023.0 |
| 20260502130446 | 27 | 341 | 0.0 | 0.0 | 0.00 | 0.00 | 0.00 | 49 | 1022.3 |
| 20260502123429 | 30 | 51 | 2.0 | 4.0 | 0.00 | 0.00 | 0.00 | 48 | 1022.4 |
| 20260502122926 | 28 | 349 | 0.0 | 1.0 | 0.00 | 0.00 | 0.00 | 49 | 1022.3 |
| 20260502122422 | 26 | 2 | 1.0 | 1.0 | 0.00 | 0.00 | 0.00 | 51 | 1022.2 |
| 20260502121920 | 25 | 335 | 0.0 | 0.0 | 0.00 | 0.00 | 0.00 | 50 | 1022.1 |
| 20260502121417 | 25 | 339 | 0.0 | 1.0 | 0.00 | 0.00 | 0.00 | 50 | 1022.4 |
| 20260502120915 | 25 | 332 | 1.0 | 1.0 | 0.00 | 0.00 | 0.00 | 49 | 1022.4 |
| 20260502120410 | 26 | 310 | 1.0 | 1.0 | 0.00 | 0.00 | 0.00 | 48 | 1022.2 |
| 20260502115908 | 27 | 328 | 0.0 | 1.0 | 0.00 | 0.00 | 0.00 | 49 | 1022.1 |
| 20260502115405 | 28 | 10 | 1.0 | 3.0 | 0.00 | 0.00 | 0.00 | 49 | 1022.1 |
| 20260502114901 | 29 | 308 | 2.0 | 3.0 | 0.00 | 0.00 | 0.00 | 47 | 1022.1 |
| 20260502114358 | 29 | 319 | 0.0 | 1.0 | 0.00 | 0.00 | 0.00 | 48 | 1022.1 |
| 20260502113855 | 33 | 103 | 3.0 | 4.0 | 0.00 | 0.00 | 0.00 | 44 | 1022.1 |
| 20260502113353 | 31 | 43 | 5.0 | 5.0 | 0.00 | 0.00 | 0.00 | 45 | 1022.1 |
| 20260502112851 | 30 | 32 | 5.0 | 5.0 | 0.00 | 0.00 | 0.00 | 45 | 1022.3 |
| 20260502112348 | 29 | 0 | 3.0 | 4.0 | 0.00 | 0.00 | 0.00 | 45 | 1022.3 |
| 20260502111845 | 30 | 297 | 3.0 | 4.0 | 0.00 | 0.00 | 0.00 | 45 | 1022.3 |
| 20260502111343 | 29 | 344 | 2.0 | 3.0 | 0.00 | 0.00 | 0.00 | 45 | 1022.3 |
| 20260502110840 | 30 | 337 | 1.0 | 3.0 | 0.00 | 0.00 | 0.00 | 45 | 1022.2 |
| 20260502110338 | 31 | 2 | 3.0 | 3.0 | 0.00 | 0.00 | 0.00 | 45 | 1022.1 |
| 20260502105835 | 31 | 340 | 2.0 | 3.0 | 0.00 | 0.00 | 0.00 | 45 | 1022.2 |
| 20260502105332 | 32 | 342 | 0.0 | 0.0 | 0.00 | 0.00 | 0.00 | 45 | 1022.2 |
| 20260502104830 | 31 | 351 | 0.0 | 1.0 | 0.00 | 0.00 | 0.00 | 45 | 1022.3 |
| 20260502104327 | 31 | 350 | 3.0 | 3.0 | 0.00 | 0.00 | 0.00 | 45 | 1022.2 |
| 20260502103824 | 31 | 326 | 0.0 | 1.0 | 0.00 | 0.00 | 0.00 | 45 | 1022.5 |
| 20260502103321 | 33 | 343 | 0.0 | 1.0 | 0.00 | 0.00 | 0.00 | 43 | 1022.3 |
| 20260502102819 | 32 | 334 | 0.0 | 1.0 | 0.00 | 0.00 | 0.00 | 44 | 1022.4 |
| 20260502102315 | 33 | 9 | 1.0 | 3.0 | 0.00 | 0.00 | 0.00 | 42 | 1022.4 |
| 20260502101813 | 33 | 36 | 3.0 | 4.0 | 0.00 | 0.00 | 0.00 | 42 | 1022.1 |
| 20260502101311 | 33 | 62 | 5.0 | 7.0 | 0.00 | 0.00 | 0.00 | 42 | 1022.3 |
| 20260502100809 | 31 | 38 | 2.0 | 4.0 | 0.00 | 0.00 | 0.00 | 44 | 1022.3 |
| 20260502100308 | 30 | 342 | 2.0 | 3.0 | 0.00 | 0.00 | 0.00 | 44 | 1022.3 |
| 20260502091241 | 36 | 6 | 3.0 | 4.0 | 0.00 | 0.00 | 0.00 | 38 | 1022.2 |
| 20260502090738 | 35 | 322 | 1.0 | 3.0 | 0.00 | 0.00 | 0.00 | 40 | 1022.3 |
| 20260502090235 | 37 | 2 | 1.0 | 3.0 | 0.00 | 0.00 | 0.00 | 38 | 1022.4 |
| 20260502071136 | 42 | 355 | 5.0 | 5.0 | 0.00 | 0.00 | 0.00 | 32 | 1022.6 |
| 20260502070634 | 43 | 354 | 4.0 | 10.0 | 0.00 | 0.00 | 0.00 | 31 | 1022.5 |
| 20260502070132 | 44 | 12 | 7.0 | 10.0 | 0.00 | 0.00 | 0.00 | 31 | 1022.5 |
| 20260502065630 | 44 | 24 | 6.0 | 10.0 | 0.00 | 0.00 | 0.00 | 30 | 1022.5 |
| 20260502065127 | 43 | 42 | 5.0 | 8.0 | 0.00 | 0.00 | 0.00 | 31 | 1022.2 |
| 20260502064626 | 43 | 18 | 6.0 | 10.0 | 0.00 | 0.00 | 0.00 | 30 | 1022.3 |
| 20260502064122 | 42 | 22 | 5.0 | 8.0 | 0.00 | 0.00 | 0.00 | 30 | 1022.3 |
| 20260502063620 | 42 | 19 | 4.0 | 5.0 | 0.00 | 0.00 | 0.00 | 31 | 1022.5 |
| 20260502063118 | 43 | 19 | 4.0 | 11.0 | 0.00 | 0.00 | 0.00 | 30 | 1022.2 |
| 20260502062614 | 43 | 349 | 9.0 | 10.0 | 0.00 | 0.00 | 0.00 | 30 | 1022.2 |
| 20260502062112 | 43 | 18 | 5.0 | 7.0 | 0.00 | 0.00 | 0.00 | 31 | 1022.2 |
| 20260502061610 | 42 | 23 | 3.0 | 7.0 | 0.00 | 0.00 | 0.00 | 33 | 1022.3 |
| 20260502061107 | 42 | 359 | 4.0 | 5.0 | 0.00 | 0.00 | 0.00 | 34 | 1022.1 |
| 20260502060602 | 43 | 359 | 2.0 | 3.0 | 0.00 | 0.00 | 0.00 | 33 | 1022.3 |
| 20260502060059 | 42 | 14 | 5.0 | 5.0 | 0.00 | 0.00 | 0.00 | 34 | 1022.2 |
| 20260502055556 | 45 | 30 | 3.0 | 4.0 | 0.00 | 0.00 | 0.00 | 32 | 1022.3 |
| 20260502055055 | 45 | 28 | 3.0 | 4.0 | 0.00 | 0.00 | 0.00 | 31 | 1021.9 |
| 20260502054553 | 45 | 30 | 3.0 | 4.0 | 0.00 | 0.00 | 0.00 | 31 | 1022.1 |
| 20260502054050 | 45 | 31 | 3.0 | 5.0 | 0.00 | 0.00 | 0.00 | 31 | 1022.2 |
| 20260502053547 | 44 | 29 | 3.0 | 4.0 | 0.00 | 0.00 | 0.00 | 31 | 1022.2 |
| 20260502053045 | 46 | 24 | 4.0 | 5.0 | 0.00 | 0.00 | 0.00 | 30 | 1022.2 |
| 20260502052543 | 46 | 12 | 5.0 | 7.0 | 0.00 | 0.00 | 0.00 | 29 | 1022.2 |
| 20260502052041 | 44 | 4 | 5.0 | 5.0 | 0.00 | 0.00 | 0.00 | 31 | 1021.9 |
| 20260502051538 | 43 | 357 | 3.0 | 4.0 | 0.00 | 0.00 | 0.00 | 32 | 1022.1 |
| 20260502051036 | 43 | 16 | 3.0 | 4.0 | 0.00 | 0.00 | 0.00 | 32 | 1022.1 |
| 20260502050532 | 45 | 16 | 4.0 | 4.0 | 0.00 | 0.00 | 0.00 | 31 | 1021.9 |
| 20260502050029 | 45 | 24 | 3.0 | 4.0 | 0.00 | 0.00 | 0.00 | 31 | 1021.8 |
| 20260502045526 | 49 | 15 | 6.0 | 7.0 | 0.00 | 0.00 | 0.00 | 28 | 1022.1 |
| 20260502045023 | 50 | 40 | 4.0 | 5.0 | 0.00 | 0.00 | 0.00 | 26 | 1021.8 |
| 20260502044519 | 51 | 51 | 3.0 | 4.0 | 0.00 | 0.00 | 0.00 | 25 | 1021.8 |
| 20260502044016 | 51 | 63 | 3.0 | 4.0 | 0.00 | 0.00 | 0.00 | 24 | 1021.9 |
| 20260502043514 | 51 | 66 | 3.0 | 4.0 | 0.00 | 0.00 | 0.00 | 25 | 1021.8 |
| 20260502043010 | 51 | 71 | 5.0 | 5.0 | 0.00 | 0.00 | 0.00 | 25 | 1021.5 |
| 20260502042505 | 51 | 97 | 3.0 | 4.0 | 0.00 | 0.00 | 0.00 | 25 | 1021.6 |
| 20260502042003 | 51 | 70 | 3.0 | 5.0 | 0.00 | 0.00 | 0.00 | 26 | 1021.5 |
| 20260502041500 | 51 | 74 | 6.0 | 8.0 | 0.00 | 0.00 | 0.00 | 24 | 1021.5 |
| 20260502040956 | 54 | 57 | 7.0 | 8.0 | 0.00 | 0.00 | 0.00 | 22 | 1021.4 |
| 20260502040453 | 54 | 94 | 4.0 | 4.0 | 0.00 | 0.00 | 0.00 | 21 | 1021.4 |
| 20260502035944 | 54 | 97 | 4.0 | 5.0 | 0.00 | 0.00 | 0.00 | 21 | 1021.4 |
| 20260502035440 | 53 | 96 | 4.0 | 4.0 | 0.00 | 0.00 | 0.00 | 22 | 1021.2 |
| 20260502034938 | 54 | 79 | 5.0 | 5.0 | 0.00 | 0.00 | 0.00 | 22 | 1021.2 |
| 20260502034437 | 53 | 78 | 5.0 | 5.0 | 0.00 | 0.00 | 0.00 | 22 | 1021.1 |
| 20260502033935 | 54 | 97 | 3.0 | 3.0 | 0.00 | 0.00 | 0.00 | 22 | 1021.1 |
| 20260502033432 | 55 | 104 | 4.0 | 5.0 | 0.00 | 0.00 | 0.00 | 21 | 1020.8 |
| 20260502032928 | 56 | 100 | 4.0 | 4.0 | 0.00 | 0.00 | 0.00 | 22 | 1020.8 |
| 20260502032425 | 56 | 93 | 3.0 | 4.0 | 0.00 | 0.00 | 0.00 | 23 | 1020.9 |
| 20260502031922 | 57 | 92 | 4.0 | 4.0 | 0.00 | 0.00 | 0.00 | 23 | 1020.8 |
| 20260502031421 | 57 | 101 | 4.0 | 5.0 | 0.00 | 0.00 | 0.00 | 23 | 1020.8 |
| 20260502030919 | 57 | 100 | 4.0 | 5.0 | 0.00 | 0.00 | 0.00 | 23 | 1020.5 |
| 20260502030417 | 57 | 98 | 5.0 | 5.0 | 0.00 | 0.00 | 0.00 | 22 | 1020.3 |
| 20260502025914 | 57 | 103 | 5.0 | 5.0 | 0.00 | 0.00 | 0.00 | 22 | 1020.7 |
| 20260502025411 | 58 | 91 | 4.0 | 5.0 | 0.00 | 0.00 | 0.00 | 21 | 1020.5 |
| 20260502024909 | 59 | 98 | 4.0 | 5.0 | 0.00 | 0.00 | 0.00 | 21 | 1020.5 |
| 20260502024407 | 61 | 79 | 5.0 | 5.0 | 0.00 | 0.00 | 0.00 | 20 | 1020.5 |
| 20260502023904 | 62 | 84 | 5.0 | 5.0 | 0.00 | 0.00 | 0.00 | 19 | 1020.3 |
| 20260502023402 | 63 | 66 | 4.0 | 5.0 | 0.00 | 0.00 | 0.00 | 19 | 1020.1 |
| 20260502022859 | 63 | 67 | 4.0 | 4.0 | 0.00 | 0.00 | 0.00 | 18 | 1020.3 |
| 20260502022355 | 64 | 75 | 3.0 | 4.0 | 0.00 | 0.00 | 0.00 | 18 | 1020.1 |
| 20260502021853 | 64 | 76 | 3.0 | 4.0 | 0.00 | 0.00 | 0.00 | 18 | 1020.3 |
| 20260502021350 | 64 | 72 | 3.0 | 5.0 | 0.00 | 0.00 | 0.00 | 18 | 1020.2 |
| 20260502020847 | 65 | 76 | 5.0 | 5.0 | 0.00 | 0.00 | 0.00 | 17 | 1020.2 |
| 20260502020344 | 66 | 47 | 4.0 | 5.0 | 0.00 | 0.00 | 0.00 | 17 | 1020.3 |
| 20260502015841 | 66 | 142 | 3.0 | 5.0 | 0.00 | 0.00 | 0.00 | 17 | 1020.2 |
| 20260502015338 | 66 | 71 | 4.0 | 7.0 | 0.00 | 0.00 | 0.00 | 17 | 1019.9 |
| 20260502014836 | 66 | 120 | 5.0 | 8.0 | 0.00 | 0.00 | 0.00 | 17 | 1020.1 |
| 20260502014333 | 66 | 134 | 4.0 | 5.0 | 0.00 | 0.00 | 0.00 | 17 | 1020.1 |
| 20260502013829 | 66 | 347 | 2.0 | 7.0 | 0.00 | 0.00 | 0.00 | 16 | 1019.9 |
| 20260502013324 | 67 | 50 | 4.0 | 8.0 | 0.00 | 0.00 | 0.00 | 16 | 1019.8 |
| 20260502012821 | 67 | 173 | 9.0 | 11.0 | 0.00 | 0.00 | 0.00 | 16 | 1019.9 |
| 20260502012319 | 67 | 136 | 5.0 | 5.0 | 0.00 | 0.00 | 0.00 | 15 | 1020.1 |
| 20260502011816 | 68 | 337 | 0.0 | 1.0 | 0.00 | 0.00 | 0.00 | 15 | 1019.9 |
| 20260502011312 | 67 | 347 | 7.0 | 11.0 | 0.00 | 0.00 | 0.00 | 16 | 1020.1 |
| 20260502010810 | 67 | 211 | 5.0 | 8.0 | 0.00 | 0.00 | 0.00 | 16 | 1019.9 |
| 20260502010306 | 68 | 21 | 6.0 | 10.0 | 0.00 | 0.00 | 0.00 | 16 | 1020.2 |
| 20260502005803 | 67 | 347 | 5.0 | 5.0 | 0.00 | 0.00 | 0.00 | 16 | 1019.8 |
| 20260502005301 | 67 | 346 | 1.0 | 5.0 | 0.00 | 0.00 | 0.00 | 16 | 1020.2 |
| 20260502004757 | 68 | 110 | 8.0 | 10.0 | 0.00 | 0.00 | 0.00 | 16 | 1020.2 |
| 20260502004253 | 67 | 65 | 6.0 | 12.0 | 0.00 | 0.00 | 0.00 | 16 | 1020.1 |
| 20260502003752 | 68 | 25 | 6.0 | 14.0 | 0.00 | 0.00 | 0.00 | 15 | 1020.2 |
| 20260502003248 | 68 | 315 | 4.0 | 7.0 | 0.00 | 0.00 | 0.00 | 15 | 1020.2 |
| 20260502002744 | 68 | 354 | 7.0 | 7.0 | 0.00 | 0.00 | 0.00 | 15 | 1020.3 |
| 20260502002242 | 68 | 311 | 8.0 | 12.0 | 0.00 | 0.00 | 0.00 | 15 | 1020.1 |
| 20260502001739 | 69 | 161 | 20.0 | 27.0 | 0.00 | 0.00 | 0.00 | 16 | 1019.7 |
| 20260502001237 | 69 | 85 | 2.0 | 4.0 | 0.00 | 0.00 | 0.00 | 15 | 1020.5 |
| 20260502000735 | 68 | 17 | 1.0 | 7.0 | 0.00 | 0.00 | 0.00 | 16 | 1020.3 |
| 20260502000233 | 67 | 105 | 11.0 | 12.0 | 0.00 | 0.00 | 0.00 | 16 | 1020.7 |
| 20260501235732 | 68 | 138 | 7.0 | 11.0 | 0.00 | 0.00 | 0.00 | 15 | 1020.5 |